[[{"header":{"parameterUnit":"m.s-1","parameterCategory":2,"la1":30.2991,"la2":30.254,"lo1":-89.0895,"lo2":-89.0444,"dy":0.0017,"dx":0.0017,"nx":28,"ny":28,"refTime":"2024-12-20T03:00:00:Z","depth":"0","parameterNumber":2,"parameterNumberName":"U-component_of_CURRENTS"},"data":[0,0,0,0,0,0,0,0,0,0,0,0,0,0,0,0,0,0,0,0,0,0,0,0,0,0,0,0,0,0,0,0,0,0,0,0,0,0,0,0,0,0,0,0,0,0,0,0,0,0,0,0,0,0,0,0,0,0,0.3422,0.3422,0,0.3407,0.3407,0.3407,0.3383,0.3383,0.3383,0.3383,0.3358,0.3358,0.3357,0,0,0,0,0,0,0,0,0,0,0,0,0,0.343,0.343,0.3422,0.3422,0.3422,0.3407,0.3407,0.3406,0.3383,0.3383,0.3383,0.3383,0.3358,0.3358,0.3357,0,0,0,0,0,0,0,0,0,0,0,0,0,0.3419,0.343,0.3422,0.3411,0.341,0.3408,0.3407,0.3406,0.3383,0.3383,0.3383,0.3383,0.3359,0.3358,0.3357,0.3356,0,0,0.3355,0.3354,0,0,0,0,0,0,0,0,0.342,0.3418,0.3412,0.3412,0.3411,0.34,0.3401,0.339,0.3383,0.339,0.3383,0.3383,0.3374,0.3371,0.3365,0.3355,0.3354,0.3355,0.3354,0.3354,0.3353,0,0,0,0,0,0,0,0.342,0.3419,0.3413,0.3413,0.3412,0.3408,0.3406,0.3399,0.338,0.3389,0.3388,0.3392,0.3372,0.3365,0.3364,0.3353,0.3355,0.3354,0.3353,0.3353,0.3335,0.3335,0,0,0,0,0,0,0.3429,0.342,0.3413,0.3412,0.3419,0.3408,0.3405,0.3401,0.338,0.3378,0.3392,0.3391,0.3367,0.3365,0.3363,0.3393,0.3354,0.3353,0.3352,0.3335,0.3335,0.3335,0,0,0,0,0,0,0.3429,0.3428,0.3414,0.3419,0.3417,0.3408,0.3403,0.3401,0.34,0.3384,0.338,0.3396,0.3367,0.3364,0.3349,0.339,0.3353,0.3352,0.3335,0.3335,0.3335,0.3432,0,0,0,0,0,0,0.3429,0.3428,0.3432,0.3419,0.3417,0.3424,0.3404,0.3401,0.3404,0.3402,0.3385,0.3382,0.3366,0.335,0.3348,0.3389,0.3351,0.3335,0.3335,0.3335,0.3428,0.3435,0.3441,0,0,0,0,0,0.3429,0.3433,0.3432,0.3432,0.3421,0.3425,0.3424,0.3414,0.3405,0.3411,0.3385,0.3383,0.3349,0.3349,0.3347,0.3388,0.3335,0.3335,0.3335,0.3426,0.3434,0.344,0,0,0,0,0,0,0.343,0.3431,0.3429,0.3431,0.3435,0.3423,0.3426,0.3421,0.3406,0.3401,0.3378,0.3374,0.3382,0.3357,0.3358,0.3378,0.3345,0.3344,0.3414,0.3421,0.3427,0.3466,0.3351,0,0,0,0,0,0.3436,0.3445,0.3442,0.3446,0.3446,0.3438,0.344,0.3436,0.3422,0.3415,0.3401,0.3382,0.338,0.3377,0.3365,0.3372,0.339,0.3394,0.3401,0.3406,0.3433,0.3498,0.3514,0.3336,0.3336,0.3336,0,0,0.3435,0.3441,0.3444,0.3449,0.3446,0.3456,0.3437,0.3444,0.346,0.3415,0.3421,0.3406,0.3384,0.3395,0.3397,0.3381,0.346,0.3406,0.3412,0.3436,0.35,0.3518,0.3534,0.3336,0.3336,0.3336,0,0,0.3445,0.3445,0.3456,0.3464,0.3474,0.3474,0.3481,0.3474,0.3477,0.3479,0.3457,0.3466,0.3442,0.3452,0.345,0.348,0.3492,0.3467,0.3536,0.3598,0.3615,0.363,0.3663,0.368,0.347,0.347,0.347,0,0.3447,0.3457,0.346,0.3475,0.3485,0.3486,0.3498,0.3508,0.35,0.3516,0.349,0.3499,0.3481,0.3524,0.3532,0.3504,0.3525,0.3517,0.3613,0.3628,0.3642,0.3672,0.369,0.3475,0.3474,0.3474,0.3473,0,0.346,0.3475,0.3481,0.3504,0.3518,0.3529,0.3545,0.3562,0.3565,0.3581,0.3619,0.3598,0.361,0.3607,0.3579,0.3666,0.3644,0.362,0.3609,0.3667,0.3692,0.371,0.3481,0.348,0.3478,0.3477,0,0,0.343,0.3482,0.3482,0.3497,0.3532,0.3538,0.3584,0.3625,0.3667,0.3675,0.3733,0.3738,0.3744,0.3742,0.3722,0.3774,0.3881,0.3743,0.3744,0.3801,0.4009,0.3914,0.3923,0.3881,0.3885,0.3888,0.3984,0,0.3433,0.3468,0.3501,0.3531,0.3539,0.3576,0.3623,0.3669,0.3707,0.3766,0.3793,0.3833,0.3792,0.3806,0.3858,0.3879,0.3932,0.3856,0.3922,0.3924,0.3855,0.3942,0.3798,0.3865,0.4001,0.4003,0.4005,0,0.3414,0.3446,0.3476,0.3542,0.355,0.3579,0.3654,0.3703,0.3806,0.3848,0.3916,0.3933,0.4014,0.3964,0.4067,0.4021,0.4031,0.4042,0.4046,0.3943,0.3862,0.3828,0.3891,0.3798,0.4032,0.4029,0.4028,0,0.3354,0.3418,0.3444,0.346,0.354,0.3569,0.3621,0.3719,0.3779,0.391,0.3965,0.4062,0.41,0.4161,0.4167,0.4137,0.4274,0.4229,0.4154,0.4145,0.4029,0.4004,0.4035,0.4319,0.4319,0.4319,0.4318,0,0.3322,0.3334,0.3416,0.3422,0.347,0.3536,0.361,0.3692,0.3819,0.3889,0.3998,0.4058,0.4155,0.4218,0.4232,0.4247,0.4326,0.4199,0.4183,0.405,0.4027,0.3943,0.389,0.4322,0.4321,0.4321,0.432,0,0.3231,0.329,0.3318,0.3407,0.3435,0.3464,0.359,0.3645,0.3786,0.3883,0.3928,0.4084,0.4169,0.4237,0.4334,0.4303,0.4226,0.4319,0.414,0.4101,0.3918,0.3875,0.3772,0.3663,0.4272,0.4271,0.4269,0,0.3175,0.3183,0.3281,0.3303,0.3338,0.3403,0.345,0.3607,0.3673,0.3866,0.39,0.4036,0.4094,0.4222,0.4231,0.4272,0.4151,0.4134,0.4049,0.392,0.3862,0.3725,0.3631,0.393,0.3926,0.3923,0.392,0,0.3066,0.3113,0.3152,0.3206,0.3248,0.331,0.3389,0.344,0.3607,0.3682,0.3791,0.3867,0.401,0.4001,0.4066,0.4066,0.394,0.4065,0.3999,0.3663,0.3453,0.3333,0.3838,0.3891,0.3894,0.3896,0.3898,0.3899,0.2976,0.298,0.3041,0.3085,0.3138,0.3178,0.3167,0.3263,0.3329,0.3399,0.3579,0.362,0.3761,0.3842,0.3827,0.3731,0.372,0.3627,0.3608,0.3499,0.3319,0.3743,0.3727,0.3728,0.373,0.3732,0.3733,0,0.2838,0.2867,0.2906,0.2943,0.2937,0.3024,0.3081,0.3038,0.3017,0.3166,0.3225,0.3314,0.3347,0.3446,0.345,0.3318,0.3189,0.3223,0.3025,0.2973,0.3426,0.3336,0.3151,0.3151,0.3151,0.3151,0.3151,0.3151,0.2767,0.2747,0.2776,0.2721,0.2736,0.2664,0.2653,0.2634,0.2699,0.2703,0.2742,0.2861,0.3101,0.32,0.3108,0.3032,0.2806,0.2667,0.2669,0.3022,0.3059,0.3093,0.2999,0.2746,0.2745,0.2106,0.2101,0.2098]},{"header":{"parameterUnit":"m.s-1","parameterCategory":2,"la1":30.2991,"la2":30.254,"lo1":-89.0895,"lo2":-89.0444,"dy":0.0017,"dx":0.0017,"nx":28,"ny":28,"refTime":"2024-12-20T03:00:00:Z","depth":"0","parameterNumber":3,"parameterNumberName":"V-component_of_CURRENTS"},"data":[0,0,0,0,0,0,0,0,0,0,0,0,0,0,0,0,0,0,0,0,0,0,0,0,0,0,0,0,0,0,0,0,0,0,0,0,0,0,0,0,0,0,0,0,0,0,0,0,0,0,0,0,0,0,0,0,0,0,-0.0128,-0.0128,0,-0.0177,-0.0177,-0.0178,-0.022,-0.022,-0.022,-0.0221,-0.0286,-0.0288,-0.0289,0,0,0,0,0,0,0,0,0,0,0,0,0,-0.01,-0.01,-0.0128,-0.0128,-0.0129,-0.0176,-0.0177,-0.0178,-0.022,-0.022,-0.022,-0.0221,-0.0286,-0.0288,-0.0289,0,0,0,0,0,0,0,0,0,0,0,0,0,-0.0128,-0.01,-0.0128,-0.0154,-0.0157,-0.0176,-0.0177,-0.0178,-0.022,-0.022,-0.0221,-0.0221,-0.0285,-0.0287,-0.029,-0.0293,0,0,-0.0296,-0.0297,0,0,0,0,0,0,0,0,-0.0126,-0.0129,-0.015,-0.0153,-0.0156,-0.0191,-0.0191,-0.0217,-0.0219,-0.0197,-0.0221,-0.0221,-0.0255,-0.026,-0.0269,-0.0296,-0.0299,-0.0296,-0.0298,-0.0299,-0.0299,0,0,0,0,0,0,0,-0.0124,-0.0127,-0.0149,-0.015,-0.0154,-0.0173,-0.0178,-0.0197,-0.0224,-0.0199,-0.0202,-0.0205,-0.0257,-0.0267,-0.0271,-0.03,-0.0296,-0.0298,-0.03,-0.03,-0.0318,-0.0318,0,0,0,0,0,0,-0.0113,-0.0125,-0.0147,-0.015,-0.014,-0.0173,-0.0178,-0.0181,-0.0224,-0.023,-0.0205,-0.0207,-0.0263,-0.0269,-0.0274,-0.0269,-0.0299,-0.0301,-0.0302,-0.0319,-0.0318,-0.0317,0,0,0,0,0,0,-0.0112,-0.0115,-0.0145,-0.0138,-0.0143,-0.0173,-0.0175,-0.0181,-0.019,-0.0227,-0.0234,-0.0206,-0.0264,-0.0271,-0.028,-0.0272,-0.0302,-0.0304,-0.032,-0.0319,-0.0318,-0.0266,0,0,0,0,0,0,-0.0111,-0.0114,-0.0114,-0.0137,-0.0143,-0.0148,-0.0175,-0.0182,-0.019,-0.0194,-0.0231,-0.0238,-0.0265,-0.0277,-0.0282,-0.0276,-0.0305,-0.0321,-0.032,-0.0318,-0.0269,-0.0263,-0.0258,0,0,0,0,0,-0.011,-0.0102,-0.0114,-0.0116,-0.0141,-0.0147,-0.0152,-0.0177,-0.019,-0.0187,-0.021,-0.0237,-0.0271,-0.0278,-0.0285,-0.0278,-0.0322,-0.032,-0.0318,-0.0271,-0.0264,-0.0258,0,0,0,0,0,0,-0.0086,-0.0106,-0.0119,-0.0117,-0.0129,-0.0154,-0.0154,-0.017,-0.0187,-0.019,-0.0227,-0.0235,-0.0242,-0.0262,-0.0269,-0.0277,-0.0301,-0.03,-0.0262,-0.0256,-0.0251,-0.0234,-0.0307,0,0,0,0,0,-0.0081,-0.0085,-0.0102,-0.0101,-0.0103,-0.0128,-0.0134,-0.0148,-0.0165,-0.0174,-0.02,-0.0223,-0.0239,-0.0249,-0.0268,-0.0271,-0.0287,-0.0271,-0.0265,-0.0261,-0.025,-0.0266,-0.0261,-0.0311,-0.0311,-0.0311,0,0,-0.0072,-0.0084,-0.0086,-0.0097,-0.0109,-0.0099,-0.0133,-0.0135,-0.0129,-0.0177,-0.0179,-0.0207,-0.0235,-0.0241,-0.0245,-0.0257,-0.0253,-0.0259,-0.0255,-0.0246,-0.0263,-0.0258,-0.0254,-0.031,-0.031,-0.031,0,0,-0.0046,-0.0063,-0.0052,-0.0055,-0.0065,-0.0078,-0.0074,-0.0093,-0.0105,-0.011,-0.0142,-0.016,-0.0186,-0.0205,-0.0218,-0.0193,-0.0225,-0.02,-0.0162,-0.0177,-0.0173,-0.017,-0.0177,-0.0175,-0.0198,-0.0198,-0.0198,0,-0.0033,-0.002,-0.0048,-0.0032,-0.0026,-0.0062,-0.0037,-0.0053,-0.0074,-0.0074,-0.0101,-0.0135,-0.0168,-0.0168,-0.0165,-0.0182,-0.0192,-0.0185,-0.017,-0.0167,-0.0165,-0.0173,-0.0171,-0.0195,-0.0195,-0.0196,-0.0196,0,0.0008,0.0019,0.0029,0.0036,0.0037,0.0052,0.0033,0.0028,0.0006,-0.0007,-0.0017,-0.0067,-0.0083,-0.0102,-0.013,-0.0125,-0.0138,-0.0163,-0.0186,-0.0157,-0.0167,-0.0166,-0.0191,-0.0192,-0.0193,-0.0193,0,0,0.0046,0.0056,0.0063,0.0081,0.0078,0.0086,0.0094,0.01,0.0123,0.0074,0.0096,0.0041,0.0011,-0.0005,-0.0048,-0.007,-0.0072,-0.0106,-0.0108,-0.0112,-0.0096,-0.0109,-0.011,-0.0095,-0.0095,-0.0095,-0.0109,0,0.0093,0.014,0.0129,0.0177,0.0205,0.0178,0.0195,0.019,0.0181,0.0191,0.0128,0.0126,0.005,0.0042,0.0007,-0.0042,-0.0068,-0.0065,-0.0124,-0.0125,-0.0141,-0.0109,-0.0095,-0.0107,-0.0108,-0.0108,-0.0108,0,0.015,0.0173,0.0227,0.0257,0.0267,0.0286,0.0316,0.0329,0.0327,0.0317,0.0292,0.0248,0.0207,0.0134,0.0054,0.006,-0.0013,-0.0065,-0.0067,-0.0096,-0.0137,-0.0138,-0.0106,-0.025,-0.0107,-0.0107,-0.0107,0,0.0205,0.0247,0.0291,0.0302,0.0326,0.0344,0.036,0.0374,0.0411,0.0404,0.0426,0.036,0.0344,0.024,0.0117,0.0091,0.0031,-0.0017,-0.0101,-0.0103,-0.011,-0.0112,-0.0222,-0.0079,-0.0079,-0.0079,-0.0079,0,0.0266,0.0306,0.0321,0.0348,0.0413,0.0407,0.0483,0.0485,0.0522,0.0588,0.0499,0.0533,0.037,0.0308,0.0172,0.0052,0.0072,-0.0081,-0.0103,-0.0091,-0.0091,-0.0233,-0.0329,-0.008,-0.008,-0.008,-0.008,0,0.0326,0.0332,0.039,0.0424,0.0442,0.0492,0.0569,0.0631,0.0641,0.0724,0.0723,0.0681,0.0601,0.0432,0.0286,0.0145,-0.0068,-0.004,-0.0011,-0.003,-0.0252,-0.0345,-0.0479,-0.054,-0.0127,-0.0127,-0.0127,0,0.0363,0.0397,0.0453,0.0498,0.0517,0.0592,0.0653,0.0688,0.0769,0.0825,0.088,0.0822,0.0818,0.0596,0.0334,0.0105,-0.0062,-0.005,-0.011,-0.025,-0.0371,-0.044,-0.0487,-0.0097,-0.0097,-0.0097,-0.0097,0,0.0441,0.0452,0.0497,0.0589,0.0656,0.0744,0.0838,0.092,0.0975,0.105,0.1147,0.1148,0.0925,0.0719,0.038,0.0199,-0.0154,-0.0059,-0.0211,-0.0359,-0.0433,-0.0506,-0.0102,-0.0098,-0.0098,-0.0098,-0.0098,-0.0098,0.0499,0.0545,0.0601,0.0694,0.0775,0.0893,0.0987,0.1099,0.124,0.1368,0.136,0.1405,0.1061,0.0615,0.0343,-0.0145,-0.0164,-0.0294,-0.0393,-0.0447,-0.0518,-0.011,-0.0132,-0.0132,-0.0133,-0.0133,-0.0133,0,0.0573,0.0622,0.0709,0.0816,0.0922,0.0947,0.1109,0.1216,0.1396,0.1523,0.1614,0.1494,0.1068,0.0604,-0.0055,-0.0403,-0.0538,-0.0601,-0.0703,-0.0733,-0.0369,-0.038,-0.0447,-0.0447,-0.0446,-0.0446,-0.0446,-0.0446,0.0611,0.07,0.0743,0.0925,0.1006,0.1155,0.1253,0.1409,0.1539,0.1715,0.1771,0.1779,0.1424,0.0239,-0.0544,-0.0727,-0.0972,-0.1039,-0.1156,-0.0923,-0.0902,-0.0882,-0.0914,-0.1091,-0.1092,-0.146,-0.1464,-0.1467]}],[{"header":{"parameterUnit":"m.s-1","parameterCategory":2,"la1":30.2991,"la2":30.254,"lo1":-89.0895,"lo2":-89.0444,"dy":0.0017,"dx":0.0017,"nx":28,"ny":28,"refTime":"2024-12-20T03:00:00:Z","depth":"2","parameterNumber":2,"parameterNumberName":"U-component_of_CURRENTS"},"data":[0,0,0,0,0,0,0,0,0,0,0,0,0,0,0,0,0,0,0,0,0,0,0,0,0,0,0,0,0,0,0,0,0,0,0,0,0,0,0,0,0,0,0,0,0,0,0,0,0,0,0,0,0,0,0,0,0,0,0.2641,0.2642,0,0.2661,0.2661,0.2661,0.2666,0.2666,0.2666,0.2666,0.2683,0.2683,0.2684,0,0,0,0,0,0,0,0,0,0,0,0,0,0.2635,0.2635,0.2641,0.2642,0.2642,0.2661,0.2661,0.2661,0.2666,0.2666,0.2666,0.2667,0.2683,0.2683,0.2684,0,0,0,0,0,0,0,0,0,0,0,0,0,0.2643,0.2635,0.2641,0.2648,0.2649,0.2661,0.2661,0.2661,0.2666,0.2666,0.2666,0.2667,0.2683,0.2683,0.2684,0.2686,0,0,0.2686,0.2686,0,0,0,0,0,0,0,0,0.2642,0.2643,0.2647,0.2648,0.2649,0.2663,0.2665,0.267,0.2666,0.2658,0.2666,0.2667,0.2677,0.2678,0.2679,0.2687,0.2688,0.2686,0.2686,0.2686,0.2686,0,0,0,0,0,0,0,0.2642,0.2642,0.2647,0.2647,0.2649,0.266,0.2661,0.2666,0.2665,0.2659,0.266,0.2665,0.2677,0.2679,0.268,0.2688,0.2686,0.2686,0.2687,0.2687,0.2734,0.2735,0,0,0,0,0,0,0.2642,0.2642,0.2647,0.2648,0.2648,0.266,0.2661,0.2657,0.2665,0.2667,0.2665,0.2665,0.2677,0.2679,0.268,0.273,0.2686,0.2687,0.2687,0.2733,0.2735,0.2736,0,0,0,0,0,0,0.2641,0.2641,0.2646,0.2647,0.2649,0.266,0.2656,0.2657,0.2674,0.267,0.2672,0.2682,0.2678,0.2679,0.2699,0.2729,0.2687,0.2688,0.2732,0.2734,0.2735,0.2799,0,0,0,0,0,0,0.2641,0.2641,0.2646,0.2647,0.2649,0.2663,0.2656,0.2658,0.2677,0.2678,0.2685,0.2686,0.2678,0.2699,0.27,0.2729,0.2688,0.2731,0.2733,0.2735,0.2796,0.2802,0.2808,0,0,0,0,0,0.264,0.2643,0.2646,0.2647,0.2652,0.2664,0.2667,0.2674,0.2678,0.2688,0.2695,0.2687,0.271,0.27,0.2701,0.2731,0.273,0.2733,0.2734,0.2793,0.2801,0.2808,0,0,0,0,0,0,0.2637,0.2645,0.2647,0.265,0.2663,0.2666,0.268,0.2685,0.2698,0.2703,0.2699,0.27,0.2731,0.2719,0.2707,0.2748,0.2719,0.2721,0.2763,0.2771,0.2777,0.2795,0.2689,0,0,0,0,0,0.264,0.2646,0.2655,0.2658,0.267,0.268,0.2689,0.2694,0.2703,0.271,0.2716,0.2723,0.2738,0.2744,0.2751,0.2772,0.2784,0.2791,0.2797,0.2803,0.2818,0.287,0.2883,0.2742,0.2742,0.2742,0,0,0.2641,0.2644,0.2649,0.266,0.2672,0.2693,0.2686,0.2705,0.2724,0.2709,0.2743,0.2749,0.2749,0.2776,0.2788,0.277,0.2846,0.2805,0.281,0.2822,0.2874,0.2888,0.2901,0.2744,0.2743,0.2743,0,0,0.2646,0.2651,0.2664,0.2679,0.2701,0.2709,0.2721,0.2738,0.2751,0.2778,0.2778,0.2807,0.2816,0.2831,0.2837,0.2881,0.288,0.2877,0.2923,0.2974,0.2986,0.2997,0.3021,0.3034,0.2877,0.2877,0.2877,0,0.2648,0.2658,0.267,0.269,0.2706,0.2722,0.2745,0.2763,0.2784,0.2805,0.2796,0.2846,0.2848,0.2893,0.2909,0.2899,0.2916,0.2896,0.2984,0.2995,0.3006,0.3027,0.3041,0.288,0.288,0.2879,0.2879,0,0.2664,0.268,0.2691,0.2721,0.2743,0.2762,0.2791,0.2819,0.2838,0.2859,0.2912,0.292,0.2953,0.2956,0.2947,0.302,0.3004,0.2991,0.297,0.3025,0.3042,0.3055,0.2885,0.2884,0.2883,0.2882,0,0,0.2645,0.2693,0.2699,0.2715,0.276,0.2773,0.2823,0.2868,0.2914,0.2939,0.2996,0.3027,0.3045,0.3054,0.3053,0.3092,0.3177,0.3077,0.3078,0.3107,0.3279,0.3209,0.3216,0.3184,0.3187,0.3189,0.3258,0,0.2653,0.2684,0.2716,0.2755,0.2772,0.2814,0.286,0.2906,0.2954,0.3016,0.3045,0.3102,0.3078,0.3108,0.3146,0.3178,0.3216,0.3159,0.3215,0.3216,0.3154,0.323,0.298,0.3016,0.3271,0.3273,0.3274,0,0.2651,0.2674,0.2708,0.2764,0.2781,0.2815,0.2895,0.2942,0.3037,0.3083,0.315,0.3181,0.3254,0.3222,0.331,0.3276,0.3289,0.33,0.3303,0.3228,0.3171,0.3004,0.303,0.3296,0.3294,0.3292,0.3291,0,0.2605,0.2663,0.2685,0.2704,0.2778,0.2813,0.2865,0.2961,0.3021,0.3142,0.3197,0.3282,0.3331,0.3376,0.3398,0.3372,0.3481,0.3445,0.3388,0.3382,0.3175,0.3146,0.3512,0.3512,0.3512,0.3512,0.3512,0,0.2578,0.2598,0.2667,0.268,0.2727,0.2793,0.2872,0.2945,0.3066,0.3132,0.323,0.3289,0.3377,0.3435,0.3445,0.3461,0.3523,0.342,0.341,0.3187,0.3159,0.3402,0.3388,0.3514,0.3514,0.3513,0.3513,0,0.2508,0.2556,0.2588,0.2672,0.2702,0.2736,0.2866,0.2921,0.3051,0.3143,0.3187,0.3328,0.3408,0.3466,0.3548,0.3512,0.354,0.3522,0.3243,0.32,0.3391,0.338,0.348,0.3478,0.3477,0.3476,0.3475,0,0.2469,0.2477,0.2564,0.2584,0.2623,0.2696,0.2743,0.2895,0.2957,0.3138,0.3162,0.3302,0.3355,0.3461,0.3453,0.3474,0.3523,0.3236,0.3144,0.3415,0.3396,0.3386,0.3377,0.2886,0.288,0.2876,0.2872,0,0.2397,0.2435,0.2464,0.2509,0.2556,0.2607,0.269,0.2738,0.2896,0.2976,0.3074,0.3149,0.3267,0.3195,0.3247,0.3216,0.3217,0.3142,0.3519,0.2936,0.2862,0.284,0.2849,0.2831,0.2835,0.2838,0.284,0.2842,0.2341,0.234,0.2384,0.2413,0.2465,0.2486,0.2488,0.2578,0.2651,0.273,0.2882,0.2902,0.2978,0.2934,0.2862,0.2811,0.3024,0.2883,0.2895,0.2912,0.2834,0.2762,0.2696,0.2699,0.2702,0.2704,0.2707,0,0.2247,0.2257,0.2281,0.2307,0.2301,0.2374,0.2415,0.2387,0.2397,0.2515,0.2582,0.2419,0.241,0.2476,0.2347,0.2367,0.2316,0.2262,0.2169,0.2214,0.2254,0.2138,0.1817,0.1814,0.1811,0.1808,0,0,0.2199,0.2173,0.2178,0.2129,0.2144,0.2093,0.2081,0.2067,0.2112,0.2094,0.2099,0.2302,0.2413,0.2073,0.2052,0.1907,0.2034,0.1834,0.2557,0.2494,0.2528,0.2636,0.2513,0,0,0,0,0]},{"header":{"parameterUnit":"m.s-1","parameterCategory":2,"la1":30.2991,"la2":30.254,"lo1":-89.0895,"lo2":-89.0444,"dy":0.0017,"dx":0.0017,"nx":28,"ny":28,"refTime":"2024-12-20T03:00:00:Z","depth":"2","parameterNumber":3,"parameterNumberName":"V-component_of_CURRENTS"},"data":[0,0,0,0,0,0,0,0,0,0,0,0,0,0,0,0,0,0,0,0,0,0,0,0,0,0,0,0,0,0,0,0,0,0,0,0,0,0,0,0,0,0,0,0,0,0,0,0,0,0,0,0,0,0,0,0,0,0,0.0163,0.0162,0,0.0115,0.0115,0.0114,0.0079,0.0079,0.0079,0.0078,0.0021,0.002,0.0019,0,0,0,0,0,0,0,0,0,0,0,0,0,0.0186,0.0186,0.0163,0.0162,0.0162,0.0116,0.0115,0.0114,0.0079,0.0079,0.0079,0.0078,0.0022,0.002,0.0019,0,0,0,0,0,0,0,0,0,0,0,0,0,0.016,0.0186,0.0163,0.014,0.0137,0.0116,0.0115,0.0114,0.0079,0.0079,0.0079,0.0078,0.0022,0.002,0.0018,0.0012,0,0,0.0012,0.0011,0,0,0,0,0,0,0,0,0.0162,0.0159,0.0144,0.0141,0.0139,0.0104,0.0102,0.008,0.0079,0.01,0.0078,0.0078,0.0049,0.0045,0.0035,0.0009,0.0007,0.0012,0.0011,0.001,0.0009,0,0,0,0,0,0,0,0.0164,0.0161,0.0143,0.0143,0.014,0.0119,0.0115,0.0097,0.0076,0.0098,0.0096,0.0092,0.0047,0.0037,0.0033,0.0006,0.0012,0.001,0.0009,0.0008,-0.0029,-0.0029,0,0,0,0,0,0,0.0174,0.0163,0.0144,0.0142,0.0151,0.0119,0.0115,0.0114,0.0076,0.007,0.0093,0.0091,0.0041,0.0036,0.0031,0.0031,0.001,0.0008,0.0007,-0.003,-0.0029,-0.0029,0,0,0,0,0,0,0.0175,0.0173,0.0146,0.0152,0.0147,0.012,0.0119,0.0114,0.0104,0.0072,0.0066,0.0089,0.004,0.0034,0.0018,0.0028,0.0007,0.0005,-0.003,-0.003,-0.0029,0.0024,0,0,0,0,0,0,0.0176,0.0174,0.0175,0.0153,0.0147,0.0142,0.0119,0.0113,0.0103,0.01,0.0067,0.0061,0.0039,0.0021,0.0016,0.0025,0.0004,-0.003,-0.003,-0.0029,0.0022,0.0026,0.0029,0,0,0,0,0,0.0177,0.0185,0.0175,0.0173,0.015,0.0142,0.0138,0.0116,0.0103,0.0105,0.0079,0.0062,0.0019,0.0019,0.0013,0.0022,-0.003,-0.003,-0.0029,0.002,0.0025,0.0029,0,0,0,0,0,0,0.0197,0.0182,0.017,0.0173,0.0161,0.0137,0.0135,0.012,0.01,0.0096,0.0064,0.0057,0.0045,0.0026,0.0026,0.0011,-0.0008,-0.0009,0.0032,0.0036,0.004,0.006,0.0002,0,0,0,0,0,0.0202,0.0205,0.0185,0.0189,0.0183,0.0159,0.0152,0.0139,0.012,0.011,0.0086,0.0061,0.0042,0.0033,0.0012,0.0006,-0.0016,0.0007,0.0011,0.0014,0.0026,-0.0001,0.0002,-0.0028,-0.0028,-0.0028,0,0,0.0209,0.0203,0.0203,0.0193,0.018,0.0185,0.0154,0.0149,0.0153,0.0108,0.0103,0.0072,0.0042,0.0033,0.0027,0.0019,0.0009,0.0015,0.0018,0.0028,-0.0,0.0003,0.0005,-0.0027,-0.0027,-0.0027,0,0,0.0235,0.0221,0.0234,0.0228,0.0217,0.0204,0.0206,0.0183,0.0172,0.0161,0.013,0.0108,0.0078,0.006,0.0047,0.006,0.0028,0.0051,0.009,0.0064,0.0066,0.0068,0.004,0.0039,0.0056,0.0056,0.0056,0,0.0246,0.026,0.0236,0.0249,0.0253,0.0218,0.0236,0.022,0.0195,0.0193,0.0168,0.0124,0.0093,0.0089,0.0089,0.007,0.0048,0.0076,0.007,0.0071,0.0072,0.0043,0.0041,0.0059,0.0058,0.0058,0.0058,0,0.0281,0.0292,0.03,0.0307,0.0306,0.0316,0.0296,0.0289,0.0267,0.0251,0.0234,0.0185,0.0164,0.0145,0.0119,0.0116,0.0095,0.0076,0.0062,0.0078,0.0046,0.0043,0.0062,0.0061,0.0061,0.006,0,0,0.0312,0.0324,0.0327,0.0346,0.034,0.0349,0.0352,0.0353,0.0369,0.0321,0.0332,0.028,0.025,0.0233,0.0193,0.0166,0.0144,0.0129,0.0126,0.0107,0.0085,0.0061,0.0056,0.0122,0.0122,0.0122,0.0058,0,0.0349,0.0392,0.0385,0.0428,0.045,0.0427,0.0439,0.0433,0.0419,0.0418,0.0357,0.0349,0.0285,0.0276,0.0237,0.0173,0.014,0.0164,0.0066,0.0063,0.0046,0.0053,0.0072,0.0016,0.0055,0.0054,0.0054,0,0.0391,0.0416,0.0463,0.05,0.0507,0.0523,0.0548,0.0559,0.0542,0.0531,0.0502,0.0454,0.0407,0.0348,0.0243,0.0261,0.018,0.0119,0.0115,0.0076,0.0035,0.0005,0.0009,0.0049,0.0049,0.0049,0.005,0,0.0435,0.0476,0.0519,0.053,0.0556,0.0573,0.0588,0.0592,0.0624,0.0608,0.0622,0.0548,0.0521,0.041,0.0272,0.026,0.0152,0.0119,0.002,0.0017,0.0007,0.0003,0.0044,0.0044,0.0044,0.0044,0.0044,0,0.0485,0.0521,0.0543,0.0567,0.063,0.0626,0.0693,0.0695,0.0719,0.077,0.0687,0.0701,0.0535,0.0447,0.0308,0.0159,0.0176,0.0032,0.0002,0.0024,0.0023,0.0031,0.0031,0.0042,0.0042,0.0043,0.0043,0,0.053,0.0539,0.0597,0.0633,0.0653,0.0699,0.0773,0.0824,0.083,0.0891,0.0889,0.0824,0.0708,0.0531,0.0355,0.022,0.0071,0.001,0.0045,0.0021,-0.0058,-0.0055,-0.0102,-0.0103,-0.0104,-0.0105,-0.0106,0,0.0558,0.059,0.0652,0.0696,0.0716,0.0786,0.0841,0.0877,0.0945,0.097,0.1007,0.0913,0.0863,0.0593,0.034,0.0097,0.0064,-0.0049,-0.0072,-0.0046,-0.0071,-0.0067,-0.0062,-0.007,-0.007,-0.0071,-0.0071,0,0.0616,0.0632,0.0679,0.077,0.0835,0.0922,0.1003,0.1071,0.1115,0.116,0.1194,0.1152,0.0895,0.0653,0.0314,0.0149,-0.001,-0.0064,-0.004,-0.0034,-0.0021,-0.0044,-0.004,-0.0074,-0.0074,-0.0073,-0.0073,-0.0073,0.066,0.0705,0.0766,0.0855,0.0935,0.1038,0.1118,0.1205,0.1307,0.137,0.1331,0.1274,0.0994,0.0568,0.0272,-0.0039,-0.0023,-0.0133,-0.013,-0.0127,-0.011,-0.0099,-0.0164,-0.0164,-0.0164,-0.0164,-0.0164,0,0.0714,0.0764,0.085,0.0952,0.1046,0.108,0.1216,0.1292,0.1405,0.1455,0.1474,0.1213,0.0936,0.0612,0.0151,-0.0122,-0.0139,-0.0208,-0.0169,-0.0164,-0.016,-0.0143,-0.0207,-0.0208,-0.0208,-0.0209,0,0,0.0743,0.0826,0.0869,0.1024,0.1101,0.123,0.1307,0.1411,0.1477,0.1521,0.1493,0.143,0.1035,0.0698,0.0322,0.0055,0.0009,0.0003,0.0066,0.0162,0.0169,-0.0088,-0.0053,0,0,0,0,0]}],[{"header":{"parameterUnit":"m.s-1","parameterCategory":2,"la1":30.2991,"la2":30.254,"lo1":-89.0895,"lo2":-89.0444,"dy":0.0017,"dx":0.0017,"nx":28,"ny":28,"refTime":"2024-12-20T03:00:00:Z","depth":"4","parameterNumber":2,"parameterNumberName":"U-component_of_CURRENTS"},"data":[0,0,0,0,0,0,0,0,0,0,0,0,0,0,0,0,0,0,0,0,0,0,0,0,0,0,0,0,0,0,0,0,0,0,0,0,0,0,0,0,0,0,0,0,0,0,0,0,0,0,0,0,0,0,0,0,0,0,0.1586,0.1587,0,0.1655,0.1656,0.1657,0.1715,0.1716,0.1717,0.1717,0.1791,0.1792,0.1794,0,0,0,0,0,0,0,0,0,0,0,0,0,0.1502,0.1503,0.1586,0.1587,0.1588,0.1655,0.1656,0.1657,0.1715,0.1716,0.1717,0.1718,0.1791,0.1792,0.1794,0,0,0,0,0,0,0,0,0,0,0,0,0,0.155,0.1504,0.1586,0.1627,0.1631,0.1655,0.1656,0.1657,0.1715,0.1716,0.1717,0.1718,0.179,0.1792,0.1794,0.1781,0,0,0.1799,0.18,0,0,0,0,0,0,0,0,0.1547,0.1553,0.162,0.1624,0.1629,0.168,0.1654,0.1699,0.1714,0.1681,0.1717,0.1719,0.1755,0.1759,0.1767,0.1784,0.1787,0.18,0.1801,0.1802,0.1802,0,0,0,0,0,0,0,0.1544,0.155,0.1612,0.1621,0.1627,0.1641,0.1649,0.1663,0.1709,0.1684,0.1689,0.1699,0.1757,0.1765,0.1769,0.1789,0.18,0.1801,0.1802,0.1803,0.1913,0.1915,0,0,0,0,0,0,0.1538,0.1547,0.161,0.1614,0.1592,0.1642,0.165,0.1661,0.1709,0.1718,0.1698,0.1702,0.1761,0.1767,0.1772,0.1857,0.1802,0.1803,0.1804,0.1911,0.1914,0.1916,0,0,0,0,0,0,0.1536,0.1543,0.1607,0.1584,0.1593,0.1642,0.1653,0.1661,0.1706,0.172,0.1729,0.1738,0.1763,0.177,0.1824,0.1857,0.1804,0.1806,0.1909,0.1912,0.1915,0.1965,0,0,0,0,0,0,0.1533,0.1542,0.1563,0.1583,0.1594,0.1644,0.1652,0.1662,0.1709,0.1715,0.1756,0.1762,0.1764,0.1821,0.1826,0.1858,0.1807,0.1907,0.191,0.1914,0.1961,0.1969,0.1976,0,0,0,0,0,0.153,0.1548,0.1564,0.1573,0.1617,0.1645,0.1652,0.1689,0.171,0.1733,0.177,0.1763,0.1846,0.1824,0.1829,0.1863,0.1905,0.1909,0.1913,0.1957,0.1967,0.1975,0,0,0,0,0,0,0.1527,0.1556,0.1574,0.1603,0.1634,0.1656,0.1688,0.1708,0.1754,0.1773,0.1784,0.1793,0.1854,0.1853,0.1829,0.1906,0.1875,0.188,0.1907,0.1916,0.1923,0.192,0.1809,0,0,0,0,0,0.1534,0.1556,0.1586,0.1613,0.1633,0.1667,0.169,0.1714,0.1749,0.1772,0.1801,0.1835,0.1867,0.1889,0.1914,0.1953,0.1957,0.198,0.1987,0.1993,0.1996,0.2035,0.2046,0.1929,0.1929,0.1929,0,0,0.1541,0.1561,0.1575,0.1614,0.1645,0.1676,0.1685,0.1731,0.1763,0.1771,0.1838,0.1866,0.1886,0.1935,0.1962,0.1943,0.2032,0.1999,0.2004,0.2003,0.204,0.2051,0.2061,0.1932,0.1931,0.1931,0,0,0.1553,0.1586,0.1609,0.1637,0.1687,0.1706,0.1727,0.1771,0.1806,0.1861,0.1881,0.193,0.1977,0.1997,0.2011,0.2074,0.2072,0.2091,0.2123,0.2162,0.2171,0.218,0.2207,0.2217,0.2091,0.2091,0.2091,0,0.1565,0.1593,0.1621,0.1652,0.1682,0.1723,0.1756,0.1792,0.185,0.188,0.1895,0.1985,0.2003,0.2058,0.2085,0.209,0.2112,0.2085,0.217,0.2179,0.2187,0.2212,0.2223,0.2094,0.2094,0.2094,0.2093,0,0.1584,0.1622,0.1642,0.1691,0.1726,0.1764,0.181,0.1858,0.1905,0.1936,0.2017,0.2051,0.2102,0.2119,0.2123,0.2191,0.219,0.2177,0.2143,0.2201,0.2225,0.2235,0.2098,0.2097,0.2096,0.2096,0,0,0.1569,0.164,0.1652,0.1682,0.1752,0.1776,0.1842,0.1901,0.1952,0.2014,0.2079,0.2138,0.2168,0.2186,0.2205,0.2239,0.2313,0.2239,0.224,0.2258,0.2405,0.2258,0.2255,0.2323,0.2325,0.2327,0.2401,0,0.1581,0.1634,0.1671,0.173,0.1763,0.1822,0.1875,0.1938,0.2001,0.2075,0.2123,0.2198,0.219,0.2238,0.2268,0.2312,0.2343,0.2294,0.2352,0.2354,0.2209,0.2262,0.2333,0.2409,0.2411,0.2413,0.2414,0,0.1587,0.1621,0.1678,0.1752,0.1774,0.1821,0.1917,0.1972,0.2073,0.213,0.2205,0.2253,0.2331,0.2315,0.2402,0.2379,0.2398,0.2416,0.2419,0.2267,0.2225,0.2339,0.2432,0.2431,0.243,0.2428,0.2427,0,0.1547,0.1626,0.167,0.1697,0.1786,0.1835,0.1893,0.1995,0.2055,0.2182,0.2245,0.233,0.24,0.2438,0.2479,0.246,0.2562,0.2533,0.2412,0.2403,0.249,0.248,0.2584,0.2584,0.2584,0.2583,0.2583,0,0.1525,0.1565,0.1663,0.1684,0.1752,0.1826,0.1913,0.1989,0.2107,0.2176,0.2278,0.2342,0.244,0.2503,0.2515,0.2495,0.2592,0.2424,0.2412,0.2511,0.2503,0.2498,0.2487,0.2586,0.2586,0.2585,0.2585,0,0.1468,0.1533,0.1588,0.1692,0.1735,0.1786,0.192,0.1973,0.2104,0.2203,0.2253,0.2387,0.2466,0.2532,0.2608,0.253,0.2534,0.25,0.2615,0.2608,0.234,0.2331,0.2365,0.2361,0.2357,0.2353,0.2351,0,0.1437,0.1463,0.1582,0.1619,0.1673,0.1765,0.1824,0.1963,0.202,0.2203,0.2233,0.2372,0.2438,0.2424,0.2503,0.2514,0.2481,0.2461,0.2377,0.2332,0.2319,0.2316,0.2312,0.2345,0.2344,0.2342,0.2341,0,0.1374,0.1434,0.1474,0.1554,0.1624,0.1688,0.1787,0.182,0.197,0.2109,0.2166,0.2208,0.2289,0.2332,0.2364,0.2363,0.246,0.242,0.2427,0.2348,0.2308,0.2297,0.2298,0.2328,0.233,0.2331,0.2332,0,0.1332,0.1344,0.1411,0.1467,0.1548,0.1581,0.1646,0.171,0.1787,0.1984,0.1999,0.2137,0.2268,0.2255,0.2283,0.2276,0.2231,0.2141,0.2161,0.2177,0.2078,0.1998,0.1917,0,0,0,0,0,0.1281,0.1278,0.1318,0.1366,0.1438,0.1487,0.1603,0.1669,0.1821,0.1812,0.1901,0.1964,0.201,0.2082,0.2035,0.2197,0.2238,0.2131,0.2145,0.2253,0.2269,0.2169,0,0,0,0,0,0,0.1242,0.1273,0.1277,0.1268,0.1283,0.1348,0.1415,0.1518,0.152,0.1684,0.1721,0.1843,0.1919,0.2019,0.1998,0.2018,0.1985,0.2221,0.2216,0.2245,0.2259,0.2271,0.2174,0,0,0,0,0]},{"header":{"parameterUnit":"m.s-1","parameterCategory":2,"la1":30.2991,"la2":30.254,"lo1":-89.0895,"lo2":-89.0444,"dy":0.0017,"dx":0.0017,"nx":28,"ny":28,"refTime":"2024-12-20T03:00:00:Z","depth":"4","parameterNumber":3,"parameterNumberName":"V-component_of_CURRENTS"},"data":[0,0,0,0,0,0,0,0,0,0,0,0,0,0,0,0,0,0,0,0,0,0,0,0,0,0,0,0,0,0,0,0,0,0,0,0,0,0,0,0,0,0,0,0,0,0,0,0,0,0,0,0,0,0,0,0,0,0,0.0187,0.0187,0,0.0159,0.0159,0.0159,0.0144,0.0144,0.0144,0.0144,0.0113,0.0112,0.0111,0,0,0,0,0,0,0,0,0,0,0,0,0,0.0199,0.0199,0.0187,0.0187,0.0186,0.0159,0.0159,0.0158,0.0144,0.0144,0.0144,0.0144,0.0113,0.0112,0.0111,0,0,0,0,0,0,0,0,0,0,0,0,0,0.0184,0.0199,0.0187,0.0176,0.0175,0.0159,0.0159,0.0158,0.0144,0.0144,0.0144,0.0144,0.0113,0.0112,0.0111,0.0103,0,0,0.0107,0.0106,0,0,0,0,0,0,0,0,0.0185,0.0184,0.0178,0.0177,0.0175,0.0155,0.0152,0.014,0.0144,0.0155,0.0144,0.0144,0.0127,0.0124,0.0119,0.0102,0.01,0.0107,0.0106,0.0106,0.0105,0,0,0,0,0,0,0,0.0186,0.0185,0.0176,0.0178,0.0176,0.0163,0.0161,0.0149,0.0141,0.0154,0.0153,0.015,0.0126,0.012,0.0118,0.01,0.0107,0.0106,0.0105,0.0104,0.0075,0.0075,0,0,0,0,0,0,0.0192,0.0186,0.0177,0.0175,0.0181,0.0163,0.016,0.0161,0.0141,0.0138,0.015,0.015,0.0122,0.0119,0.0117,0.012,0.0106,0.0104,0.0104,0.0075,0.0075,0.0075,0,0,0,0,0,0,0.0192,0.0192,0.0178,0.018,0.0177,0.0163,0.0163,0.0161,0.0159,0.0138,0.0135,0.0152,0.0122,0.0118,0.011,0.0118,0.0104,0.0103,0.0075,0.0075,0.0075,0.0118,0,0,0,0,0,0,0.0193,0.0192,0.0195,0.018,0.0177,0.0175,0.0163,0.016,0.0157,0.0156,0.0138,0.0135,0.0122,0.0112,0.0109,0.0116,0.0102,0.0075,0.0075,0.0075,0.0116,0.0119,0.0122,0,0,0,0,0,0.0193,0.0201,0.0196,0.0195,0.0182,0.0175,0.0173,0.0161,0.0157,0.0159,0.0145,0.0136,0.0109,0.0111,0.0107,0.0115,0.0075,0.0075,0.0075,0.0115,0.0119,0.0122,0,0,0,0,0,0,0.0207,0.02,0.0194,0.0198,0.019,0.0173,0.0174,0.0166,0.0156,0.0157,0.0137,0.0133,0.0127,0.0113,0.0115,0.0104,0.009,0.0089,0.0122,0.0125,0.0127,0.0141,0.0101,0,0,0,0,0,0.0212,0.0217,0.0204,0.0208,0.0205,0.019,0.0186,0.0179,0.0168,0.0164,0.0151,0.0135,0.0122,0.0118,0.0103,0.01,0.0076,0.0101,0.0103,0.0106,0.0113,0.0082,0.0082,0.0075,0.0075,0.0075,0,0,0.0217,0.0215,0.0217,0.0212,0.0204,0.0208,0.0188,0.0187,0.0191,0.0162,0.0164,0.0144,0.0122,0.0117,0.0114,0.0109,0.0093,0.0105,0.0108,0.0115,0.0082,0.0082,0.0083,0.0075,0.0075,0.0075,0,0,0.0235,0.023,0.0241,0.0237,0.0231,0.0223,0.0225,0.0212,0.0207,0.0202,0.0182,0.0168,0.015,0.0137,0.0128,0.0135,0.0106,0.0128,0.0157,0.0126,0.0127,0.0127,0.0091,0.0087,0.0132,0.0132,0.0132,0,0.0243,0.0255,0.0242,0.0252,0.0256,0.0234,0.0248,0.0238,0.0224,0.0224,0.0209,0.0179,0.016,0.0154,0.0157,0.0142,0.0117,0.015,0.013,0.013,0.013,0.0093,0.0088,0.0134,0.0134,0.0134,0.0134,0,0.0267,0.0278,0.0285,0.0293,0.0295,0.0302,0.0291,0.0288,0.0278,0.0268,0.0255,0.0222,0.0207,0.0194,0.0179,0.017,0.0149,0.0136,0.0126,0.0133,0.0093,0.0088,0.0137,0.0137,0.0136,0.0135,0,0,0.0284,0.03,0.0303,0.032,0.0319,0.0327,0.0332,0.0334,0.0346,0.0316,0.0321,0.0288,0.0268,0.0255,0.0227,0.02,0.017,0.0172,0.017,0.0143,0.0096,0.0084,0.0077,0.0153,0.0153,0.0152,0.0067,0,0.0309,0.0342,0.0342,0.0377,0.0395,0.0383,0.0393,0.0391,0.0383,0.038,0.0336,0.033,0.0292,0.0286,0.0252,0.0194,0.016,0.0194,0.0088,0.0085,0.0079,0.0072,0.0151,0.0063,0.0062,0.0061,0.006,0,0.0335,0.0356,0.0395,0.0428,0.0435,0.0452,0.0473,0.0481,0.0467,0.0459,0.0437,0.0401,0.036,0.0324,0.0224,0.0247,0.0179,0.0125,0.012,0.0094,0.0064,0.0054,0.0051,0.0051,0.0052,0.0053,0.0053,0,0.036,0.0397,0.0433,0.0443,0.0469,0.0488,0.0504,0.0507,0.053,0.0514,0.0521,0.0458,0.0432,0.0338,0.0227,0.0226,0.0107,0.009,0.001,0.0008,0.0026,0.0027,0.0016,0.0016,0.0016,0.0017,0.0017,0,0.0387,0.0419,0.0451,0.0471,0.0524,0.0527,0.0581,0.0584,0.0598,0.0629,0.0569,0.0566,0.0436,0.0351,0.0241,0.011,0.0114,0.0015,-0.0013,0.0044,0.0048,0.0021,0.0023,0.0013,0.0014,0.0015,0.0015,0,0.0408,0.0425,0.0475,0.0517,0.0538,0.0577,0.0644,0.068,0.0683,0.0718,0.0716,0.0648,0.0537,0.0394,0.0236,0.0139,0.001,-0.004,0.0029,0.0007,-0.0075,-0.007,-0.0135,-0.0137,-0.0137,-0.0138,-0.0139,0,0.0421,0.0448,0.0516,0.0556,0.0581,0.0644,0.069,0.0722,0.0764,0.0767,0.0781,0.0691,0.0623,0.0393,0.0237,0.0018,-0.0014,-0.0089,-0.0081,-0.0069,-0.009,-0.0083,-0.0077,-0.014,-0.0141,-0.0141,-0.0141,0,0.045,0.0474,0.0516,0.0599,0.066,0.0733,0.0799,0.0835,0.0864,0.0869,0.0837,0.0716,0.0586,0.04,0.0227,0.0071,-0.0044,-0.0099,-0.0099,-0.0092,-0.0076,-0.0094,-0.0087,-0.0144,-0.0144,-0.0143,-0.0143,0,0.0474,0.0508,0.0566,0.0639,0.0719,0.0791,0.0828,0.0869,0.0905,0.0901,0.0887,0.0744,0.0662,0.0427,0.027,0.0112,0.0069,0.0012,0.0006,0.0008,0.0072,0.0115,0.0083,0,0,0,0,0,0.0494,0.0533,0.0604,0.0682,0.0761,0.081,0.0887,0.0914,0.094,0.0926,0.091,0.0787,0.0554,0.0456,0.0297,0.0242,0.0035,0.0048,-0.0035,-0.0162,-0.0158,-0.0108,0,0,0,0,0,0,0.0506,0.0569,0.0602,0.0703,0.0762,0.0853,0.0904,0.0924,0.0917,0.0914,0.0798,0.0738,0.0517,0.0647,0.0292,0.0244,0.0166,-0.0058,-0.0062,-0.0164,-0.016,-0.0158,-0.0105,0,0,0,0,0]}]]